Location: 10048 Water Well
(33.8501°N, 106.8364°W)
Time: 10:10:51
(UTC+00:00)

NOSS 2-1 (E) - Pass Details

Date: 11 December 2025
Orbit: 385 x 1749 km, 63.3° (Epoch: 7 May)

Event Time Altitude Azimuth Distance (km) Brightness Sun altitude
Exits shadow 12:50:25 23° 302° (WNW) 1,299 4.6 -14.6°
Maximum altitude 12:52:47 46° 241° (WSW) 918 4.1 -14.2°
Drops below altitude 10° 12:58:13 10° 169° (S) 2,540 7.1 -13.1°
Sets 13:01:16 0° 164° (SSE) 3,716 8.1 -12.5°
